Regional Weather Roundup
Issued by NWS

Home | Current Version | Previous Version | Text Only | Print | Product List | Glossary On
Versions: 1 2 3 4 5 6 7 8 9 10 11 12 13 14 15 16 17 18 19 20 21 22 23 24 25 26 27 28 29 30 31 32 33 34 35 36 37 38 39 40 41 42 43 44 45 46 47 48 49 50
000
ASUS43 KLMK 270510
RWRKY
KENTUCKY REGIONAL WEATHER ROUNDUP
NATIONAL WEATHER SERVICE LOUISVILLE KY
100 AM EDT SAT AUG 27 2016

NOTE "FAIR" INDICATES FEW OR NO CLOUDS BELOW 12,000 FEET
WITH NO SIGNIFICANT WEATHER AND/OR OBSTRUCTIONS TO VISIBILITY.

KYZ001>023-026-027-061>063-070>075-270600-
WESTERN AND SOUTH CENTRAL KENTUCKY

CITY           SKY/WX    TMP DP  RH WIND       PRES   REMARKS
PADUCAH        LGT RAIN  72  70  93 E8        30.08F
HENDERSON      CLOUDY    73  68  83 SW10G17   30.10S
OWENSBORO      CLOUDY    78  76  94 W3        30.09R
HOPKINSVILLE   TSTM      72  71  96 N7        30.12F
BOWLING GREEN  MOCLDY    80  75  84 W5        30.11R
GLASGOW        CLOUDY    75  75 100 E3        30.11S
$$

KYZ024-025-028>034-038-045-046-053-270600-
NORTH CENTRAL KENTUCKY

CITY           SKY/WX    TMP DP  RH WIND       PRES   REMARKS
LOUISVILLE/SDF CLOUDY    80  72  76 N5        30.09R
LOUISVILLE/LOU PTCLDY    79  72  79 NW3       30.10S
FORT KNOX      CLOUDY    73  70  92 W1        30.09S
$$

KYZ035>037-039>044-047>052-055>060-089>105-270600-
NORTHEAST KENTUCKY

CITY           SKY/WX    TMP DP  RH WIND       PRES   REMARKS
LEXINGTON      CLOUDY    77  69  76 E3        30.12S
COVINGTON      CLOUDY    76  72  87 CALM      30.11F
FRANKFORT      PTCLDY    75  71  87 CALM      30.10S
$$

KYZ054-064>069-076>088-106>120-270600-
SOUTHEAST KENTUCKY

CITY           SKY/WX    TMP DP  RH WIND       PRES   REMARKS
JACKSON        CLEAR     75  70  84 CALM      30.15S
LONDON         CLEAR     74  68  81 CALM      30.14R
SOMERSET       CLOUDY    72  68  88 CALM      30.14R
MIDDLESBORO    CLEAR     73  72  96 CALM      30.15S
MONTICELLO     PTCLDY   N/A N/A N/A VRB5      30.14R
$$





USA.gov is the U.S. government's official web portal to all federal, state and local government web resources and services.